Location: *
(58.7167°N, 26.1833°E)
Time: 15:28:23
(UTC+00:00)

DMSP B5D2-2 - Pass Details

Date: 25 August 2019
Orbit: 791 x 806 km, 98.4° (Epoch: 18 September)

Event Time Altitude Azimuth Distance (km) Brightness Sun altitude
Rises 19:08:11 0° 17° (NNE) 3,316 7.7 -10.8°
Reaches altitude 10° 19:10:32 10° 19° (NNE) 2,384 6.9 -11.1°
Maximum altitude 19:15:48 76° 105° (ESE) 829 4.0 -11.6°
Drops below altitude 10° 19:21:05 10° 192° (SSW) 2,378 6.2 -12.0°
Sets 19:23:25 0° 194° (SSW) 3,306 7.0 -12.3°
